Погода в Гулистане

Узбекистан     40°00′49″N   66°47′27″E
темп.,
°C
ветер,
м/с
пор.,
м/с
влажн.,
%
обл.,
%
осадки,
мм/ч
давл.,
гПа
погр.,
м
27 февраля, сб
сб2723:00−4в226192 0.0 103078
02:00−3вюв0156100 0.0 1028113
05:00−3ююз1148100 0.0 1028164
08:00−2юз1130100 0.0 1029189
11:00+1зюз462685 0.0 1029843
14:00+4зюз69290 0.0 10271242
17:00+4зюз56300 0.0 1027964
20:000ссз11400 0.0 102922
28 февраля, вс
вс2823:000всв34450 0.0 102857
02:000св23430 0.0 102622
05:000всв23440 0.0 102522
08:00+1всв22440 0.0 102427
11:00+7всв23300 0.0 1022421
14:00+11ссв11270 0.0 1019778
17:00+11ссв212811 0.0 1018611
20:00+7всв444467 0.0 102068
1 марта, пн
пн123:00+5всв234683 0.0 102030
02:00+5в2341100 0.0 102023
05:00+4всв2338100 0.0 101922
08:00+5в233719 0.0 102023
11:00+13в22249 0.0 1019312
14:00+18зюз711160 0.0 10172424
17:00+17зюз58210 0.0 10171223
20:00+11з23340 0.0 101922
2 марта, вт
вт223:00+9ю234118 0.0 102022
02:00+7ююз114663 0.0 102122
05:00+7вюв114482 0.0 102022
08:00+9вюв2336100 0.0 102227
11:00+14ю1126100 0.0 1021364
14:00+16сз2223100 0.0 1020671
17:00+15зюз4626100 0.0 10201970
20:00+12ююз5842100 0.0 1022278
3 марта, ср
ср323:00+11з1259100 0.0 102246
02:00+9юв3473100 0.4 1021113
05:00+10зюз2969100 0.6 1021565
08:00+9ю2468100 0.1 1022120
11:00+10юз2350100 0.3 10211101
14:00+9з2461100 0.4 1019912
17:00+11вюв125599 0.4 1018743
20:00+8вюв467527 0.0 1018148